Home   Weather   Avebury   Past weeks
Flag for United Kingdom

Past Weather in Avebury, England, United Kingdom — Yesterday and Last 2 Weeks

Now
57 °F

Drizzle. Overcast.


Feels Like: 55 °F
Forecast: 57 / 46 °F
Wind: 9 mph from North

Location: Brize Norton
Current Time: Sep 29, 2020 at 3:30:45 am
Latest Report: Sep 29, 2020 at 2:50 am
Visibility: 3 mi
Pressure29.95 "Hg
Humidity: 94%
Dew Point: 55 °F
Location of AveburyLocation

Past Weather in Avebury — Graph

°F

Avebury Temperature Yesterday

Maximum temperature yesterday: 64 °F (at 3:50 pm)
Minimum temperature yesterday: 37 °F (at 5:50 am)
Average temperature yesterday: 52 °F

High & Low Weather Summary for the Past Weeks

 TemperatureHumidityPressure
High82 °F (Sep 15, 2:50 pm)100% (Sep 14, 2:50 am)30.42 "Hg (Sep 14, 2:50 am)
Low37 °F (Sep 28, 5:50 am)34% (Sep 14, 3:22 pm)29.30 "Hg (Sep 24, 4:21 pm)
Average59 °F74%29.95 "Hg
* Reported Sep 14 1:20 am — Sep 29 1:50 am, Avebury. Weather by CustomWeather, © 2020

Note: Actual official high and low records may vary slightly from our data, if they occured in-between our weather recording intervals... More about our weather records

Avebury Weather History for the Previous 24 Hours

Scroll right to see more
 ConditionsComfort  
Time TempWeatherWind HumidityBarometerVisibility
1:50 am
Tue, Sep 29
59 °FDrizzle. Mostly cloudy.2 mph100%29.92 "Hg2 mi
1:20 am59 °FDrizzle. Mostly cloudy.2 mph100%29.92 "Hg1 mi
12:50 am59 °FRain. Mostly cloudy.3 mph100%29.92 "Hg1 mi
12:20 am59 °FDrizzle. Mostly cloudy.2 mph100%29.92 "Hg1 mi
11:50 pm
Mon, Sep 28
59 °FDrizzle. Low clouds.2 mph100%29.95 "Hg1 mi
11:20 pm59 °FDrizzle. Mostly cloudy.2 mph100%29.92 "Hg2 mi
10:50 pm59 °FDrizzle. Mostly cloudy.2 mph100%29.92 "Hg2 mi
10:20 pm59 °FMostly cloudy.2 mph94%29.95 "HgN/A
9:50 pm59 °FMostly cloudy.2 mph94%29.95 "HgN/A
9:20 pm59 °FDrizzle. Low clouds.2 mph94%29.92 "Hg2 mi
9:01 pm59 °FDrizzle. Low clouds.2 mph94%29.92 "Hg2 mi
8:20 pm61 °FPassing clouds.2 mph88%29.92 "HgN/A
7:50 pm61 °FOvercast.2 mph83%29.92 "HgN/A
6:50 pm61 °FPartly cloudy.5 mph83%29.92 "HgN/A
6:20 pm63 °FPartly sunny.6 mph77%29.92 "HgN/A
5:50 pm63 °FPartly sunny.6 mph77%29.89 "HgN/A
5:20 pm63 °FPartly sunny.5 mph73%29.89 "HgN/A
4:50 pm63 °FPartly sunny.6 mph73%29.89 "HgN/A
4:20 pm63 °FPartly sunny.5 mph73%29.89 "HgN/A
3:50 pm64 °FPartly sunny.6 mph64%29.89 "HgN/A
3:20 pm61 °FPartly sunny.7 mph72%29.89 "HgN/A
2:50 pm63 °FPartly sunny.6 mph68%29.92 "HgN/A
2:20 pm61 °FPartly sunny.6 mph68%29.92 "HgN/A
1:50 pm59 °FPartly sunny.5 mph72%29.92 "HgN/A
12:50 pm57 °FBroken clouds.3 mph72%29.92 "HgN/A
12:20 pm57 °FBroken clouds.5 mph72%29.92 "HgN/A
11:50 am55 °FPartly sunny.6 mph67%29.95 "HgN/A
11:20 am55 °FPartly sunny.5 mph72%29.95 "HgN/A
10:50 am54 °FScattered clouds.5 mph72%29.95 "HgN/A
10:20 am50 °FScattered clouds.6 mph76%29.95 "HgN/A
9:50 am48 °FBroken clouds.3 mph82%29.95 "HgN/A
9:20 am46 °FBroken clouds.3 mph82%29.95 "HgN/A
8:50 am43 °FSunny.2 mph87%29.95 "Hg10 mi
8:20 am41 °FSunny.3 mph87%29.95 "Hg10 mi
7:50 am39 °FSunny.3 mph93%29.95 "Hg10 mi
6:50 am37 °FClear.2 mph87%29.92 "Hg10 mi
6:20 am39 °FClear.2 mph87%29.92 "Hg10 mi
5:50 am37 °FClear.2 mph93%29.92 "Hg10 mi
5:20 am39 °FClear.3 mph87%29.92 "Hg10 mi
4:50 am41 °FClear.2 mph87%29.92 "Hg10 mi
4:20 am41 °FClear.2 mph87%29.95 "Hg10 mi
3:50 am41 °FClear.2 mph87%29.95 "Hg10 mi
Weather by CustomWeather, © 2020

See weather overview